Station VENF1 - Venice, FL Image indicating link to RSS feed of recent meteorological observations for station VENF1


Conditions at VENF1 as of
(7:00 am EDT)
1100 GMT on 04/14/2024:
     

Click on the graph icon in the table below to see a time series plot of the last five days of that observation.

5-day plot - Wind Direction Wind Direction (WDIR):ENE ( 60 deg true )
5-day plot - Wind Speed Wind Speed (WSPD): 7 kts
5-day plot - Wind Gust Wind Gust (GST): 8 kts
5-day plot - Atmospheric Pressure Atmospheric Pressure (PRES):30.18 in
5-day plot - Pressure Tendency Pressure Tendency (PTDY):+0.03 in ( Rising )
5-day plot - Air Temperature Air Temperature (ATMP): 57.4 °F
5-day plot - Water Temperature Water Temperature (WTMP): 73.2 °F
5-day plot - Dew Point Dew Point (DEWP): 49.6 °F
5-day plot - Wind Speed at 10 Meters Wind Speed at 10 meters (WSPD10M): 8 kts
5-day plot - Wind Speed at 20 Meters Wind Speed at 20 meters (WSPD20M): 8 kts
5-day plot -  Wind Speed, Wind Gust and Atmospheric Pressure Combined plot of Wind Speed, Gust, and Air Pressure
Continuous Winds
TIME
(EDT)
5-day plot - Wind Direction WDIR 5-day plot - Wind Speed WSPD
7:00 amENE ( 61 deg ) 7 kts
6:50 amENE ( 63 deg ) 7 kts
6:40 amENE ( 66 deg ) 6 kts
6:30 amENE ( 62 deg ) 7 kts
6:20 amENE ( 61 deg ) 7 kts
6:10 amENE ( 61 deg ) 7 kts
 
Peak gust during the measurement hour
TIME
(EDT)
5-day plot - Gust Direction GDR 5-day plot - Gust Speed GST
6:38 amENE ( 70 deg ) 9 kts
Previous observations
TIME
(EDT)
5-day plot - Wind Direction
WDIR
 
5-day plot - Wind Speed
WSPD
kts
5-day plot - Wind Gust
GST
kts
5-day plot - Wave Height
WVHT
ft
5-day plot - Dominant Wave Period
DPD
sec
5-day plot - Average Wave Period
APD
sec
5-day plot - Mean Wave Direction
MWD
 
5-day plot - Atmospheric Pressure
PRES
in
5-day plot - Pressure Tendency
PTDY
in
5-day plot - Air Temperature
ATMP
°F
5-day plot - Water Temperature
WTMP
°F
5-day plot - Dew Point
DEWP
°F
5-day plot - Salinity
SAL
psu
5-day plot - Visibility
VIS
nmi
5-day plot - Tide (above MLLW)
TIDE
ft
2024-04-14 06:00 amENE 7 8----30.16+0.00 58.6 73.2 50.2---
2024-04-14 05:00 amENE 6 8----30.16-0.02 59.7 73.4 50.9---
2024-04-14 04:00 amENE 6 7----30.16-0.04 60.4 73.4 51.4---
2024-04-14 03:00 amNNE 8 10----30.16-0.03 62.4 73.4 52.0---
2024-04-14 02:00 amNNE 7 8----30.18+0.00 63.0 73.6 52.9---
2024-04-14 01:00 am N 5 7----30.19+0.02 64.8 73.6 52.2---
2024-04-14 12:00 am N 6 7----30.19+0.03 67.3 73.8 51.4---
2024-04-13 11:00 pm N 8 9----30.18+0.03 68.7 73.8 51.6---
2024-04-13 10:00 pm N 9 11----30.18+0.02 71.1 73.8 53.2---
2024-04-13 09:00 pmNNW 13 14----30.16+0.00 72.0 73.8 55.0---
2024-04-13 08:00 pm NW 11 13----30.15+0.00 72.3 73.8 54.7---
2024-04-13 07:00 pm NW 15 16----30.15-0.02 72.7 73.8 54.0---
2024-04-13 06:00 pm NW 16 18----30.16-0.04 73.8 73.8----
2024-04-13 05:00 pm NW 15 17----30.16-0.06 74.5 73.8----
2024-04-13 04:00 pmNNE 6 10----30.17-0.07 78.3 73.8 36.5---
2024-04-13 03:00 pm N 5 8----30.20-0.06 76.5 73.8 35.2---
2024-04-13 02:00 pm N 9 14----30.22-0.04 75.9 73.8 36.0---
2024-04-13 01:00 pmNNE 9 11----30.25-0.01 74.5 73.8 36.3---
2024-04-13 12:00 pm NE 14 20----30.26+0.00 73.2 73.8 37.8---
2024-04-13 11:00 amNNE 14 17----30.27+0.02 71.6 73.8 38.7---
2024-04-13 10:00 amNNE 13 16----30.26+0.03 69.6 73.8 48.2---
2024-04-13 09:00 amNNE 9 11----30.26+0.04 66.7 73.8 59.2---
2024-04-13 08:00 am N 6 7----30.24+0.04 64.2 73.8 59.0---
2024-04-13 07:00 am N 5 6----30.23+0.03 64.2 73.8 57.9---